Погода в Токме

Погода в Токме : погода сейчас, прогноз погоды и архив. Всё, что Вы хотите узнать о погоде в Токме!

Хотите узнать прогноз погоды в Токме? Тогда Вам сюда: Погода в Токме

Поиск расширенной информации на нашем сайте:

Другие новости

Новости СМИ2

Главная страница сайта

Новости сайта

03.07.2017

Напоминаем, что на нашем специализированном сайте Метеоцентр.Азия вы можете получить высокодетализированные автоматические прогнозы погоды по пунктам России, СНГ и мира в авиационном формате (включающие направление и скорость ветра, видимость, явления погоды, количество и форму облачности, нижнюю и верхнюю границу облачности).


Погода в Токме - сегодня

Время (UTC), дата Ветер
(°,м/с) 
Видим.   Явления Облачность Т
(°С)
Тd
(°С)
f(%) Тe
(°С)
Pmin
(гПа)
dP
(гПа)
Po
(мм)
O2
(г/м3)
Тmin Tmax R s Состояние
почвы
03 18.02.18 250 (З) 4000 м  слаб. снег  10/0 средняя 
[As trans]
-17 -19.6 80 -21  1031.5  730  315           
06 18.02.18 250 (З) 20000 м  {снег}  10/0 средняя 
[As trans]
-15.2 -19.4 70 -19  1030.6  0.4  730  313           
09 18.02.18 230 (ЮЗ) 20000 м    10/3 600 м средняя 
[Frnb|As trans]
-15.3 -19.5 70 -19  1030.5  -0.1  729  313           
15 18.02.18 230 (ЮЗ) н/о  {снег}  4/0 верхняя 
[Ci fib]
-26 -28.4 80 -27  1033.9  0.3  730  327           
18 18.02.18 тихо ()   н/о  слаб. снег  10/0 верхняя 
[Cs]
-25.6 -28.1 80 -26  1033.5  -0.4  730  326           
21 18.02.18 тихо ()   н/о  слаб. снег  10/0 средняя 
[As trans]
-23.7 -26.3 79 -24  1031.8  -1.1  729  323           
03 19.02.18 тихо ()   10 км  слаб. снег  9/0 верхняя 
[Cs]
-21.7 -24.2 80 -22  1030.8  -0.3  729  321           
06 19.02.18 250 (З) 20000 м  в посл. час снег  9/4 600 м верхняя 
[Sc|Cs]
-15.7 -19.9 70 -18  1028  -1.3  728  313           
09 19.02.18 230 (ЮЗ) 10 км  слаб. снег  10/4 600 м средняя 
[Sc|As trans]
-15.2 -18.6 75 -19  1028  0.2  728  312           
15 19.02.18 тихо ()   н/о    3/0 верхняя 
[Ci fib]
-26.8 -29.3 79 -27  1030.5  727  327           
18 19.02.18 тихо ()   н/о  слаб. снег  10/0 средняя, верхняя 
[Ac trans|Cs]
-27 -29.5 79 -27  1029.1  -1.4  726  327           
21 19.02.18 тихо ()   н/о  слаб. снег  10/0 средняя 
[As op]
-26.3 -28.7 80 -26  1028.6  -0.5  726  325           
03 20.02.18 230 (ЮЗ) 4000 м  слаб. снег  10/0 средняя 
[As trans]
-15.7 -18.4 80 -18  1022.2  -0.9  723  311           
06 20.02.18 230 (ЮЗ) 4000 м  слаб. снег  10/3 600 м средняя 
[Frnb|As trans]
-14.3 -18.6 70 -20  1021.4  -0.3  723  309           
09 20.02.18 230 (ЮЗ) 10 км  слаб. снег  10/5 600 м средняя 
[Frnb|As trans]
-14 -17.5 75 -19  1022.2  0.7  724  309           
15 20.02.18 тихо ()   н/о  слаб. ливневой дождь  10/0 верхняя 
[Cs]
-18.9 -22.2 75 -19  1026.1  0.4  725  315           
18 20.02.18 140 (ЮВ) н/о  слаб. снег  6/0 верхняя 
[Cs]
-25.3 -28.5 75 -26  1026  725  324           
21 20.02.18 тихо ()   н/о  слаб. снег  10/0 верхняя 
[Cs]
-27.9 -31 75 -28  1026.4  -0.3  724  327           
03 21.02.18 тихо ()   10 км  слаб. снег  10/0 средняя 
[Ac As]
-22.3 -24.9 79 -22  1024.6  -0.2  724  319           
06 21.02.18 270 (З) 20000 м  {снег}  3/3 600 м 
[Cu hum]
-14.3 -19.4 65 -14  1022  -0.6  724  309           
09 21.02.18 тихо ()   20000 м    4/4 600 м 
[Cu med, cong]
-13.6 -19.7 60 -14  1023  0.9  724  309           
15 21.02.18 тихо ()   н/о    ясно 
-29.2 -32.2 75 -29  1026.1  0.2  724  328           
18 21.02.18 тихо ()   н/о    ясно 
-33.4 -36.3 75 -33  1027.1  724  334           
21 21.02.18 тихо ()   н/о    ясно 
-36.3 -39 76 -36  1028.2  0.2  724  338           
03 22.02.18 тихо ()   20000 м    ясно 
-31.1 -34.1 75 -31  1027.4  0.2  725  331           
Время (UTC), дата Ветер
(°,м/с) 
Видим.   Явления Облачность Т
(°С)
Тd
(°С)
f(%) Тe
(°С)
Pmin
(гПа)
dP
(гПа)
Po
(мм)
O2
(г/м3)
Тmin Tmax R s Состояние
почвы

Для получения пояснительной информации подведите курсор к названию столбца.

ПОГОДА в Токме - архив

Всё, что Вы хотите узнать о погоде в Токме - удобно и подробно!

Выберите нужную дату (начиная с 1 января 2015* года) и нажмите кнопку "Найти".
Будут отображены архивные сводки погоды по пункту Токма, начиная с указанной даты.


Отображать данные в формате CSV (для использования в таблицах Excel)


Внимание! Наш архив погоды предназначен исключительно для личного некоммерческого использования в познавательных целях. Если Вам необходимы официальные справки о состоянии погоды (для производственных, юридических, коммерческих и т.п. целей), обращайтесь в органы Росгидромета.

*Примечание: данная дата относится к архиву по метеостанциям СССР (Россия, СНГ, Балтия).
Архив по метеостанциям Зарубежной Европы и Азии (кроме Китая) хранится 10 дней, по другим регионам земного шара (Китай, Африка, Америка, Австралия, Океания) - 1 день.

Токма - район местоположения метеостанции


Название, широта, долгота, высота метеостанции:
Токма 58.3°ш. 105.9°д. 435 м над ур. моря [Российская Федерация]

Дополнительная информация

В oтличие oт бoльшинства пoгoдных сайтoв мы публикуем пoдрoбную метеoинфoрмацию в детальнoм прoфессиoнальнoм фoрмате.

Характеристики температуры и влажнoсти вoздуха измеряются на высoте 2 м в тени вдали oт зданий и деревьев.
Скoрoсть ветра измеряется на высoте 10 м (на урoвне рoста челoвека скoрoсть ветра ниже в 1.5-2 раза). Если метеoстанция нахoдится в гoрoде или в лесу, тo скoрoсть ветра занижена на 2-4 м/с пo сравнению с oткрытым местoм. Скoрoсть ветра над акватoриями крупных рек и oзёр, а также на вершинах хoлмoв на 2-5 м/с выше, чем в oбычных услoвиях.
Атмoсфернoе давление в разных тoчках местнoсти мoжет значительнo oтличаться oт давления на метеoстанции, в зависимoсти oт услoвий рельефа (при пoдъёме на 10 м давление пoнижается примернo на 1 мм рт.ст.).